Flag for Canada Weather past 2 weeks in Rothesay, New Brunswick, Canada

Now
66 °F

Fog.


Feels Like: 66 °F
Forecast: 56 / 67 °F
Wind: 9 mph from South

Location: Saint John

Current Time: Jul 29, 2014 at 2:28:06 AM

Latest Report: Jul 29, 2014 at 2:00 AM


Visibility: 2 mi

Pressure: 29.59 "Hg

Humidity: 100%

Dew point: 66 °F

Location of RothesayLocation

Historic Weather in Rothesay — Graph

°F

Rothesay temperature yesterday

Maximum temperature yesterday: 75 °F (at 2:00 PM)
Minimum temperature yesterday: 63 °F (at 12:00 AM)
Average temperature yesterday: 66 °F

Past Weeks' High & Low Weather Summary

 TemperatureHumidityPressure
High81 °F (Jul 19, 3:00 PM)100% (Jul 14, 7:00 AM)30.27 "Hg (Jul 14, 7:00 AM)
Low48 °F (Jul 26, 5:00 AM)39% (Jul 19, 2:00 PM)29.60 "Hg (Jul 29, 1:00 AM)
Average63 °F88%29.95 "Hg
* Reported Jul 14 1:00 AM — Jul 29 1:00 AM, Rothesay, Weather by CustomWeather, © 2014

Note: Actual official high and low records may vary slightly from our data, if they occured in-between our weather recording intervals... More about our weather records

Advertising

Rothesay weather history for previous 24 hours

 ConditionsComfort  
Time TempWeatherWind HumidityBarometerVisibility
1:00 AM
Jul 29
66 °FSprinkles. Fog.15 mph100%29.60 "Hg2 mi
12:52 AM66 °FSprinkles. Fog.10 mph100%29.61 "Hg3 mi
12:00 AM66 °FThunderstorms. Fog.8 mph100%29.63 "Hg5 mi
11:00 PM
Jul 28
68 °FFog.10 mph100%29.64 "Hg2 mi
10:00 PM68 °FThunderstorms. Fog.13 mph100%29.63 "Hg5 mi
9:00 PM68 °FBroken clouds.13 mph100%29.64 "Hg10 mi
8:00 PM68 °FSprinkles. Fog.14 mph100%29.65 "Hg4 mi
7:00 PM70 °FSprinkles. Fog.15 mph100%29.66 "Hg3 mi
6:00 PM68 °FSprinkles. Fog.9 mph100%29.70 "Hg3 mi
5:00 PM70 °FSprinkles. Fog.9 mph100%29.71 "Hg4 mi
4:00 PM73 °FMostly cloudy.N/A89%29.72 "Hg15 mi
3:00 PM73 °FMostly cloudy.8 mph89%29.74 "Hg10 mi
2:00 PM75 °FPartly sunny.9 mph83%29.76 "Hg15 mi
1:00 PM70 °FFog.8 mph100%29.76 "Hg4 mi
12:00 PM68 °FFog.7 mph100%29.77 "Hg1 mi
11:45 AM68 °FFog.6 mph100%29.77 "Hg2 mi
11:00 AM66 °FFog.7 mph100%29.78 "Hg1 mi
10:00 AM66 °FFog.9 mph100%29.78 "Hg1 mi
9:00 AM64 °FFog.7 mph100%29.78 "Hg1 mi
8:54 AM64 °FFog.8 mph100%29.78 "Hg1 mi
8:00 AM63 °FDrizzle. Fog.8 mph100%29.77 "Hg2 mi
7:00 AM63 °FLight rain. Low clouds.10 mph100%29.77 "Hg8 mi
6:00 AM63 °FLight rain. Overcast.9 mph100%29.76 "Hg10 mi
5:00 AM63 °FMostly cloudy.9 mph100%29.77 "Hg10 mi
4:00 AM63 °FFog.12 mph94%29.77 "Hg6 mi
3:45 AM63 °FFog.9 mph100%29.78 "Hg6 mi
3:00 AM63 °FSprinkles. Fog.13 mph100%29.79 "Hg3 mi
2:00 AM63 °FSprinkles. Fog.9 mph100%29.80 "Hg2 mi
Weather by CustomWeather, © 2014

See weather overviewHow to use our weather pages